Brasilsat B3

operational
NORAD ID: 25152 Int'l Des: 1998-006 Owner: EMBRM Country: BR
HEOCIRCULAR

Brasilsat B3について

説明を読み込み中...

リアルタイム位置

3D地球を読み込み中...

次回通過

高度履歴

Altitude vs Time

uPlot chart will show altitude changes over time

軌道要素

1 25152U 98006A 26063.06223390 .00000053 00000-0 00000+0 0 9997
2 25152 10.5789 48.5586 0002133 267.4055 110.3431 0.99214865 42172
Epoch: Mar 4, 2026 • Age: 18 hours

現在のステータス

高度 36078.1 km
速度 3.06 km/s
衛星直下点 -10.31°S, 120.68°W
打ち上げ日 Feb 4, 1998
運用期間 28 years
タイプ other

技術仕様

分類 Payload
質量 1780.00 kg
乾燥質量 856.00 kg
総質量 1780.00 kg
長さ 8.30 m
直径 3.60 m
スパン 8.30 m
形状 Cyl
製造者 HSES
バスタイプ HS-376W
フェーズステータス Unknown Active Status
所有者/国 EMBRM/BR

大規模コンステレーション

Loading constellations...